Location: Peebles
(55.6412°N, 3.1714°W)
Time: 06:03:08
(UTC+01:00)

ATLAS 5 CENTAUR R/B - Visible Passes

Search period start: 26 June 2022 00:00
Search period end: 06 July 2022 00:00
Orbit: 340 x 13897 km, 60.8° (Epoch: 21 June)

Date Brightness Start Highest point End Pass type
(mag) Time Alt. Az. Time Alt. Az. Time Alt. Az.
27 Jun 5.4 00:38:11 10° WNW 00:38:56 10° WNW 00:39:38 10° W visible
29 Jun 5.4 00:16:44 10° WNW 00:19:47 11° WNW 00:22:06 10° W visible
30 Jun 5.4 23:56:07 10° WNW 00:00:35 13° W 00:03:35 10° WSW visible
02 Jul 5.4 23:35:39 10° NW 23:41:19 14° W 23:44:46 10° WSW visible
04 Jul 5.3 23:15:13 10° NW 23:21:58 16° W 23:25:47 10° WSW visible
